timestamp,surface_pressure_avg,surface_temp_avg,battery_voltage,lat,long
2022-10-29 00:09:00+00:00,315.2963,13.7,12.41,47.84626,-54.09684
2022-10-29 00:19:00+00:00,319.858,13.68,12.41,47.84626,-54.09684
2022-10-29 00:29:00+00:00,322.1197,13.69,12.41,47.84626,-54.09684
2022-10-29 00:39:00+00:00,333.4947,13.66,12.41,47.84626,-54.09684
2022-10-29 00:49:00+00:00,341.2497,13.65,12.41,47.84626,-54.09684
2022-10-29 00:59:00+00:00,339.4146,13.6,12.41,47.84626,-54.09684
2022-10-29 01:09:00+00:00,339.0147,13.5,12.41,47.84626,-54.09684
2022-10-29 01:19:00+00:00,343.5912,13.55,12.41,47.84626,-54.09684
2022-10-29 01:29:00+00:00,343.7614,13.6,12.41,47.84626,-54.09684
2022-10-29 01:39:00+00:00,340.5498,13.6,12.41,47.84626,-54.09684
2022-10-29 01:49:00+00:00,340.9963,13.6,12.41,47.84626,-54.09684
2022-10-29 01:59:00+00:00,343.048,13.6,12.41,47.84626,-54.09684
2022-10-29 02:09:00+00:00,338.2479,13.6,12.41,47.84626,-54.09684
2022-10-29 02:19:01+00:00,336.7764,13.6,12.41,47.84626,-54.09684
2022-10-29 02:29:01+00:00,338.0746,13.6,12.41,47.84626,-54.09684
2022-10-29 02:39:01+00:00,335.7679,13.6,12.41,47.84626,-54.09684
2022-10-29 02:49:01+00:00,333.0897,13.63,12.41,47.84626,-54.09684
2022-10-29 02:59:01+00:00,333.6463,13.6,12.41,47.84626,-54.09684
2022-10-29 03:09:01+00:00,333.6663,13.6,12.41,47.84626,-54.09684
2022-10-29 03:19:00+00:00,328.1597,13.62,12.41,47.84626,-54.09684
2022-10-29 03:29:00+00:00,328.2214,13.66,12.41,47.84626,-54.09684
2022-10-29 03:39:00+00:00,329.9063,13.6,12.41,47.84626,-54.09684
2022-10-29 03:49:00+00:00,321.288,13.6,12.41,47.84626,-54.09684
2022-10-29 03:59:00+00:00,313.568,13.6,12.41,47.84626,-54.09684
2022-10-29 04:09:00+00:00,312.8564,13.6,12.41,47.84626,-54.09684
2022-10-29 04:19:00+00:00,305.6597,13.59,12.41,47.84626,-54.09684
2022-10-29 04:29:00+00:00,289.6647,13.58,12.41,47.84626,-54.09684
2022-10-29 04:39:00+00:00,285.1296,13.56,12.41,47.84626,-54.09684
2022-10-29 04:49:00+00:00,285.283,13.54,12.41,47.84626,-54.09684
2022-10-29 04:59:00+00:00,274.1031,13.5,12.41,47.84626,-54.09684
2022-10-29 05:09:00+00:00,259.828,13.5,12.41,47.84626,-54.09684
2022-10-29 05:19:00+00:00,256.8297,13.5,12.33,47.84626,-54.09684
2022-10-29 05:29:00+00:00,252.1898,13.5,12.33,47.84626,-54.09684
2022-10-29 05:39:00+00:00,238.7931,13.5,12.33,47.84626,-54.09684
2022-10-29 05:49:00+00:00,226.3214,13.5,12.33,47.84626,-54.09684
2022-10-29 05:59:00+00:00,220.7131,13.5,12.33,47.84626,-54.09684
2022-10-29 06:09:00+00:00,213.4131,13.5,12.33,47.84626,-54.09684
2022-10-29 06:19:00+00:00,201.5464,13.5,12.33,47.84626,-54.09684
2022-10-29 06:29:00+00:00,195.2614,13.5,12.33,47.84626,-54.09684
2022-10-29 06:39:00+00:00,193.4781,13.5,12.33,47.84626,-54.09684
2022-10-29 06:49:00+00:00,187.7581,13.5,12.33,47.84626,-54.09684
2022-10-29 06:59:00+00:00,182.6299,13.5,12.33,47.84626,-54.09684
2022-10-29 07:09:00+00:00,181.4464,13.5,12.33,47.84626,-54.09684
2022-10-29 07:19:00+00:00,178.8748,13.5,12.33,47.84626,-54.09684
2022-10-29 07:29:00+00:00,174.8815,13.5,12.33,47.84626,-54.09684
2022-10-29 07:39:00+00:00,175.1614,13.5,12.33,47.84626,-54.09684
2022-10-29 07:49:00+00:00,175.0315,13.5,12.33,47.84626,-54.09684
2022-10-29 07:59:00+00:00,172.2648,13.5,12.33,47.84626,-54.09684
2022-10-29 08:09:00+00:00,177.4665,13.5,12.33,47.84626,-54.09684
2022-10-29 08:19:00+00:00,185.0398,13.5,12.33,47.84626,-54.09684
2022-10-29 08:29:00+00:00,185.9365,13.5,12.33,47.84626,-54.09684
2022-10-29 08:39:00+00:00,190.8431,13.4,12.33,47.84626,-54.09684
2022-10-29 08:49:00+00:00,202.7848,13.4,12.33,47.84626,-54.09684
2022-10-29 08:59:00+00:00,208.2731,13.39,12.33,47.84626,-54.09684
2022-10-29 09:09:00+00:00,210.7381,13.36,12.33,47.84626,-54.09684
2022-10-29 09:19:00+00:00,216.5331,13.35,12.33,47.84626,-54.09684
2022-10-29 09:29:00+00:00,221.0614,13.4,12.33,47.84626,-54.09684
2022-10-29 09:39:00+00:00,221.2898,13.4,12.33,47.84626,-54.09684
2022-10-29 09:49:00+00:00,222.2514,13.38,12.33,47.84626,-54.09684
2022-10-29 09:59:00+00:00,227.7998,13.4,12.33,47.84626,-54.09684
2022-10-29 10:09:00+00:00,232.1014,13.42,12.33,47.84626,-54.09684
2022-10-29 10:19:00+00:00,236.2131,13.49,12.33,47.84626,-54.09684
2022-10-29 10:29:00+00:00,243.4064,13.5,12.33,47.84626,-54.09684
2022-10-29 10:39:00+00:00,248.5564,13.51,12.33,47.84626,-54.09684
2022-10-29 10:49:00+00:00,249.4931,13.54,12.33,47.84626,-54.09684
2022-10-29 10:59:00+00:00,253.7131,13.56,12.33,47.84626,-54.09684
2022-10-29 11:09:00+00:00,263.468,13.56,12.33,47.84626,-54.09684
2022-10-29 11:19:00+00:00,267.7697,13.56,13.29,47.84626,-54.09684
2022-10-29 11:29:00+00:00,269.4698,13.59,13.29,47.84626,-54.09684
2022-10-29 11:39:00+00:00,278.8681,13.5,13.29,47.84626,-54.09684
2022-10-29 11:49:00+00:00,289.428,13.5,13.29,47.84626,-54.09684
2022-10-29 11:59:00+00:00,295.9963,13.5,13.29,47.84626,-54.09684
2022-10-29 12:09:00+00:00,303.0363,13.4,13.29,47.84626,-54.09684
2022-10-29 12:19:00+00:00,316.6397,13.4,14.16,47.84626,-54.09684
2022-10-29 12:29:00+00:00,327.9612,13.4,14.16,47.84626,-54.09684
2022-10-29 12:39:00+00:00,336.0146,13.39,14.16,47.84626,-54.09684
2022-10-29 12:49:00+00:00,343.3397,13.39,14.16,47.84626,-54.09684
2022-10-29 12:59:00+00:00,352.4362,13.4,14.16,47.84626,-54.09684
2022-10-29 13:09:00+00:00,358.0397,13.44,14.16,47.84626,-54.09684
2022-10-29 13:19:00+00:00,361.4079,13.49,14.4,47.84626,-54.09684
2022-10-29 13:29:00+00:00,366.343,13.43,14.4,47.84626,-54.09684
2022-10-29 13:39:00+00:00,370.7296,13.4,14.4,47.84626,-54.09684
2022-10-29 13:49:00+00:00,370.11300000000006,13.48,14.4,47.84626,-54.09684
2022-10-29 13:59:00+00:00,369.1762,13.5,14.4,47.84626,-54.09684
2022-10-29 14:09:00+00:00,368.8113,13.5,14.4,47.84626,-54.09684
2022-10-29 14:19:00+00:00,367.8513,13.45,14.4,47.84626,-54.09684
2022-10-29 14:29:00+00:00,364.403,13.4,14.4,47.84626,-54.09684
2022-10-29 14:39:00+00:00,362.1863,13.4,14.4,47.84626,-54.09684
2022-10-29 14:49:00+00:00,359.9947,13.42,14.4,47.84626,-54.09684
2022-10-29 14:59:00+00:00,359.8813,13.46,14.4,47.84626,-54.09684
2022-10-29 15:09:00+00:00,358.8746,13.4,14.4,47.84626,-54.09684
2022-10-29 15:19:00+00:00,356.4546,13.4,14.08,47.84626,-54.09684
2022-10-29 15:29:00+00:00,354.0347,13.43,14.08,47.84626,-54.09684
2022-10-29 15:39:00+00:00,350.7663,13.46,14.08,47.84626,-54.09684
2022-10-29 15:49:00+00:00,347.0681,13.47,14.08,47.84626,-54.09684
2022-10-29 15:59:00+00:00,346.1146,13.49,14.08,47.84626,-54.09684
2022-10-29 16:09:00+00:00,341.343,13.46,14.08,47.84626,-54.09684
2022-10-29 16:19:00+00:00,335.6363,13.49,13.44,47.84626,-54.09684
2022-10-29 16:29:00+00:00,334.7163,13.5,13.44,47.84626,-54.09684
2022-10-29 16:39:00+00:00,330.4481,13.5,13.44,47.84626,-54.09684
2022-10-29 16:49:00+00:00,318.403,13.49,13.44,47.84626,-54.09684
2022-10-29 16:59:00+00:00,305.7579,13.5,13.44,47.84626,-54.09684
2022-10-29 17:09:00+00:00,298.4813,13.5,13.44,47.84626,-54.09684
2022-10-29 17:19:01+00:00,292.1313,13.5,13.21,47.84626,-54.09684
2022-10-29 17:29:01+00:00,282.1747,13.5,13.21,47.84626,-54.09684
2022-10-29 17:39:01+00:00,269.6564,13.5,13.21,47.84626,-54.09684
2022-10-29 17:49:01+00:00,255.7447,13.5,13.21,47.84626,-54.09684
2022-10-29 17:59:01+00:00,243.5564,13.5,13.21,47.84626,-54.09684
2022-10-29 18:09:01+00:00,231.8047,13.5,13.21,47.84626,-54.09684
2022-10-29 18:19:00+00:00,219.7297,13.45,12.97,47.84626,-54.09684
2022-10-29 18:29:00+00:00,210.6981,13.4,12.97,47.84626,-54.09684
2022-10-29 18:39:00+00:00,204.2431,13.4,12.97,47.84626,-54.09684
2022-10-29 18:49:00+00:00,195.8214,13.4,12.97,47.84626,-54.09684
2022-10-29 18:59:00+00:00,187.1298,13.4,12.97,47.84626,-54.09684
2022-10-29 19:09:00+00:00,183.7365,13.4,12.97,47.84626,-54.09684
2022-10-29 19:19:00+00:00,181.1398,13.4,12.73,47.84626,-54.09684
2022-10-29 19:29:00+00:00,178.4115,13.4,12.73,47.84626,-54.09684
2022-10-29 19:39:00+00:00,174.3865,13.4,12.73,47.84626,-54.09684
2022-10-29 19:49:00+00:00,171.8748,13.4,12.73,47.84626,-54.09684
2022-10-29 19:59:00+00:00,173.7815,13.4,12.73,47.84626,-54.09684
2022-10-29 20:09:00+00:00,173.0865,13.4,12.73,47.84626,-54.09684
2022-10-29 20:19:00+00:00,172.9648,13.4,12.57,47.84626,-54.09684
2022-10-29 20:29:00+00:00,177.1265,13.4,12.57,47.84626,-54.09684
2022-10-29 20:39:00+00:00,180.8031,13.4,12.57,47.84626,-54.09684
2022-10-29 20:49:00+00:00,184.0482,13.4,12.57,47.84626,-54.09684
2022-10-29 20:59:00+00:00,188.0248,13.39,12.57,47.84626,-54.09684
2022-10-29 21:09:00+00:00,192.4631,13.37,12.57,47.84626,-54.09684
2022-10-29 21:19:00+00:00,198.0165,13.3,12.57,47.84626,-54.09684
2022-10-29 21:29:00+00:00,204.2465,13.3,12.57,47.84626,-54.09684
2022-10-29 21:39:00+00:00,209.3648,13.3,12.57,47.84626,-54.09684
2022-10-29 21:49:00+00:00,212.6681,13.3,12.57,47.84626,-54.09684
2022-10-29 21:59:00+00:00,214.3798,13.3,12.57,47.84626,-54.09684
2022-10-29 22:09:00+00:00,215.7997,13.3,12.57,47.84626,-54.09684
2022-10-29 22:19:00+00:00,217.5431,13.3,12.49,47.84626,-54.09684
2022-10-29 22:29:00+00:00,221.5914,13.28,12.49,47.84626,-54.09684
2022-10-29 22:39:00+00:00,223.9831,13.22,12.49,47.84626,-54.09684
2022-10-29 22:49:00+00:00,224.6081,13.2,12.49,47.84626,-54.09684
2022-10-29 22:59:00+00:00,228.0164,13.2,12.49,47.84626,-54.09684
2022-10-29 23:09:00+00:00,230.8398,13.2,12.49,47.84626,-54.09684
2022-10-29 23:19:00+00:00,230.7265,13.2,12.49,47.84626,-54.09684
2022-10-29 23:29:00+00:00,234.4164,13.19,12.49,47.84626,-54.09684
2022-10-29 23:39:00+00:00,241.3681,13.18,12.49,47.84626,-54.09684
2022-10-29 23:49:00+00:00,245.1247,13.18,12.49,47.84626,-54.09684
2022-10-29 23:59:00+00:00,248.7381,13.16,12.49,47.84626,-54.09684
